User: anonymous   Login
Location: Cactus School
(34.5700°N, 118.0931°W)
Time: 14:09:34
(UTC-07:00)
Language:

SEEDS - Orbit

View from above orbital plane
View from above orbital plane
View from above satellite
View from above satellite

Ground track
Ground track

The orbit data is extracted from the following two-line orbital elements,

1 32791U 08021J   24148.37206171  .00008748  00000-0  64578-3 0  9999
2 32791  97.6907 119.6679 0006754  42.9572 317.2179 15.03478128873470
Epoch (UTC): 27 May 2024 08:55:46
Eccentricity: 0.0006754
inclination: 97.6907°
perigee height: 551 km
apogee height: 561 km
right ascension of ascending node: 119.6679°
argument of perigee: 42.9572°
revolutions per day: 15.03478128
mean anomaly at epoch: 317.2179°
orbit number at epoch: 87347

The dashed part of the orbit path shows where the satellite is in the earth's shadow,  

DLR